1998-067VU

Last updated on Sat Jul 29 2023 00:02:07 GMT+0000 (Coordinated Universal Time)

1 57316U 98067VU 23209.35959620 .00058861 00000+0 93829-3 0 9998 2 57316 51.6393 124.3019 0000407 55.2400 304.8628 15.52663064 3415
UTC large
Height (km)
Speed (km/s)
/
Latitude / Longitude
Inclination (degrees)
Orbital Period (minutes)
Azimuth
Elevation
Range (km)
Doppler Factor

Next 0 passes for location: London (51.5072 / 0.1276)

Sorry there are no passes over London.